Regional Weather Roundup
Issued by NWS Newport/Morehead, NC

Home | Current Version | Previous Version | Text Only | Print | Product List | Glossary On
Versions: 1 2 3 4 5 6 7 8 9 10 11 12 13 14 15 16 17 18 19 20 21 22 23 24 25 26 27 28 29 30 31 32 33 34 35 36 37 38 39 40 41 42 43 44 45 46 47 48 49 50
000
ASUS42 KMHX 310624
RWRMHX
WEATHER ROUNDUP FOR EASTERN NORTH CAROLINA
NATIONAL WEATHER SERVICE NEWPORT/MOREHEAD CITY NC
200 AM EDT SAT JUL 31 2021

NOTE: "FAIR" INDICATES FEW OR NO CLOUDS BELOW 12,000 FEET
WITH NO SIGNIFICANT WEATHER AND/OR OBSTRUCTIONS TO VISIBILITY

NCZ015>017-031-032-045>047-102-103-310700-
NORTH COAST

CITY           SKY/WX    TMP DP  RH WIND       PRES   REMARKS
EDENTON        PTCLDY    76  74  93 N3        29.92F
ELIZABETH CITY PTCLDY    76  71  85 N8        29.91F
KITTY HAWK     PTCLDY    75  75 100 N3        29.91S
MANTEO         MOCLDY    77  74  89 NE7       29.92S

$$

NCZ045>047-081-094-103-104-310700-
CENTRAL COAST

CITY           SKY/WX    TMP DP  RH WIND       PRES   REMARKS
FRISCO         MOCLDY    81  79  94 W7        29.91R

$$

NCZ095-097-098-100-101-310700-
SOUTHERN COAST

CITY           SKY/WX    TMP DP  RH WIND       PRES   REMARKS
PINEY ISLAND   CLEAR     83  79  88 SW7       29.90F
BEAUFORT       CLEAR     83  79  88 SW14      29.91S
CAPE CARTERET  CLEAR     83  78  85 W8        29.92S
JACKSONVILLE   CLEAR     80  78  94 SW8       29.91S
WILMINGTON     PTCLDY    82  78  88 SW7       29.92F


$$

NCZ011>013-027>030-043-044-078>080-089-090>093-098-310700-
COASTAL PLAIN

CITY           SKY/WX    TMP DP  RH WIND       PRES   REMARKS
AHOSKIE        CLOUDY    74  74 100 N5        29.93S
ROCKY MOUNT    CLEAR     78  74  87 N8        29.91S FOG
GREENVILLE     CLEAR     79  77  94 CALM      29.93R
WASHINGTON     MOCLDY    79  77  93 CALM      29.91R
GOLDSBORO      CLEAR     80  75  86 SW5       29.89S
KINSTON        CLEAR     79  78  96 SW5       29.91F FOG
NEW BERN       CLEAR     79  78  97 SW6       29.92S
HAVELOCK       NOT AVBL
KENANSVILLE    CLEAR     79  79 100 CALM      29.92S FOG
RICHLANDS      CLEAR     79  78  97 SW6       29.92F
CLINTON        PTCLDY    79  79 100 CALM      29.92F
ELIZABETHTOWN  CLEAR     80  79  95 SW7       29.92S
WHITEVILLE     CLEAR     81  78  90 CALM      29.94S

$$

AMZ130-135-150-152-154-156-158-170-250-252-270-ANZ085-086-088-633-658-670-310700-
MARINE OBSERVATIONS

STATION/POSITION TIME  TEMP    WIND        PRES    WAVE   SWELL
                       AIR SEA DIR/SP/G            HT/PER HT/PER
                 (UTC) (F)     (DEG/KT/KT) (MB)    (FT/S) (FT/S)
64 E VA BEACH    0600   78      50/  2/  4 1012.5
64 E VA BEACH    0600   78 79                N/A     4/ 6
DUCK PIER        0542   78     340/ 16/ 19 1012.8
2 E DUCK         0556      77                N/A     1/11
10 NE DUCK       0556      80                N/A     2/ 6
OREGON INLET     0542   79 86  100/  1/  2 1012.6
13E OREGON INLT  0556      79                N/A     3/ 6   3/ 6
HATTERAS CG      0542   80 84  240/  9/ 11 1013.1
DIAMOND BUOY     0600   82     240/ 17/ 23 1012.1
CAPE LOOKOUT     0600   82     230/ 10/ 14 1013.3
BEAUFORT LAB     0542   82 85  240/  6/ 11 1013.8
30 SE NEW RVR IN 0608   83     200/ 17/ 25 1013.1
30 SE NEW RVR IN 0556      83                N/A     5/ 6
27 SE WRIGHTSVLE 0608   83 81  220/ 16/ 21 1013.0
5 SE WRIGHTSVLE  0508   83 82  260/ 14/ 19 1013.6
27 SE WRIGHTSVL  0608   83 81  220/ 16/ 21 1013.0
FRYING PAN BUOY  0600   83     230/ 17/ 21 1013.5
225 S CAPE HAT   0600   83     230/ 17/ 21 1016.8
41 SE CHARLESTON 0600   83     210/ 17/ 21 1014.5

$$



USA.gov is the U.S. government's official web portal to all federal, state and local government web resources and services.